Flag for Germany Weather past 2 weeks in Peine, Lower Saxony, Germany

Now
28 °F

Clear.


Feels Like: 18 °F
Forecast: 21 / 30 °F
Wind: 13 mph from East

Location: Braunschweig

Current Time: Dec 27, 2014 at 8:21:08 PM

Latest Report: Dec 27, 2014 at 5:20 PM


Visibility: 10 mi

Pressure: 29.71 "Hg

Humidity: 80%

Dew point: 23 °F

Location of PeineLocation

Historic Weather in Peine — Graph

°F

Peine temperature yesterday

Past Weeks' High & Low Weather Summary

 TemperatureHumidityPressure
High54 °F (Dec 18, 6:50 PM)100% (Dec 12, 7:20 PM)30.27 "Hg (Dec 12, 7:20 PM)
Low27 °F (Dec 27, 7:50 AM)70% (Dec 15, 9:50 AM)29.36 "Hg (Dec 12, 5:20 PM)
Average44 °F90%29.81 "Hg
* Reported Dec 12 5:20 PM — Dec 27 5:20 PM, Peine, Weather by CustomWeather, © 2014

Note: Actual official high and low records may vary slightly from our data, if they occured in-between our weather recording intervals... More about our weather records

Advertising

Peine weather history for previous 24 hours

 ConditionsComfort  
Time TempWeatherWind HumidityBarometerVisibility
5:20 PM
Dec 27
28 °FClear.13 mph80%29.71 "Hg10 mi
4:50 PM28 °FClear.12 mph86%29.71 "Hg10 mi
4:20 PM28 °FClear.13 mph86%29.71 "Hg10 mi
3:50 PM30 °FSunny.13 mph80%29.71 "Hg10 mi
3:20 PM30 °FSunny.15 mph80%29.71 "Hg10 mi
2:50 PM30 °FSunny.16 mph80%29.71 "Hg10 mi
2:20 PM30 °FSunny.17 mph80%29.71 "Hg10 mi
1:50 PM30 °FSunny.15 mph80%29.71 "Hg10 mi
1:20 PM30 °FSunny.16 mph80%29.71 "Hg10 mi
12:50 PM30 °FSunny.17 mph80%29.71 "Hg10 mi
12:20 PM30 °FSunny.16 mph80%29.74 "Hg10 mi
11:50 AM28 °FSunny.18 mph93%29.74 "Hg10 mi
11:20 AM28 °FSunny.16 mph93%29.74 "Hg10 mi
10:50 AM28 °FSunny.16 mph93%29.74 "Hg10 mi
10:20 AM28 °FSunny.14 mph93%29.77 "Hg10 mi
8:50 AM27 °FSunny.10 mph100%29.80 "Hg10 mi
7:50 AM27 °FClear.12 mph100%29.83 "Hg10 mi
Weather by CustomWeather, © 2014

See weather overviewHow to use our weather pages